This demonstration page uses our WeatherBlox Daily Observations layout. Learn more.

Left ArrowRight Arrow

Hourly Observations for August 4, 2022

Temp ( °F °C ) Dew Point ( °F °C ) Humidity (%) Winds ( mph kmh ) Pressure ( in mb ) Visibility ( mi km ) Precip ( " mm )
12:52 am 00:52 Mostly Clear 84 28.9 71 21.7 65 65 S 9 15 29.83 1010 10 16 0.00 0.00
1:52 am 01:52 Mostly Clear 83 28.3 72 22.2 70 70 S 10 17 29.81 1010 10 16 0.00 0.00
2:52 am 02:52 Partly Cloudy with Light Rain 81 27.2 73 22.8 77 77 S 8 13 29.82 1010 9 14 0.00 0.00
3:26 am 03:26 Cloudy 78 25.6 72 22.2 82 82 NNE 28 44 29.87 1011 10 16 0.00 0.00
3:40 am 03:40 Mostly Cloudy with Nearby Thunderstorms 76 24.4 71 21.7 85 85 NE 25 41 29.88 1012 10 16 0.00 0.00
3:52 am 03:52 Cloudy with Nearby Thunderstorms 75 23.9 71 21.7 88 88 NNE 21 33 29.91 1013 10 16 0.00 0.00
4:01 am 04:01 Cloudy with Light Rain 74 23.3 71 21.7 91 91 NE 23 37 29.91 1013 10 16 0.00 0.00
4:52 am 04:52 Cloudy 72 22.2 69 20.6 91 91 ENE 17 28 29.91 1013 10 16 0.01 0.25
5:16 am 05:16 Cloudy with Nearby Thunderstorms 71 21.7 68 20 90 90 NNE 18 30 29.98 1015 10 16 0.00 0.00
5:26 am 05:26 Cloudy with Heavy Rain 71 21.7 68 20 90 90 NNE 32 52 29.98 1015 3 4 0.02 0.51
5:31 am 05:31 Cloudy with Nearby Thunderstorms 69 20.6 67 19.4 93 93 NNE 28 44 29.99 1016 2 2 0.09 2.29
5:38 am 05:38 Cloudy with Nearby Thunderstorms 70 21.1 68 20 93 93 NE 24 39 29.98 1015 3 5 0.20 5.08
5:52 am 05:52 Cloudy with Nearby Thunderstorms 70 21.1 68 20 93 93 NNE 17 28 30.00 1016 10 16 0.20 5.08
6:01 am 06:01 Cloudy with Strong Thunderstorms 70 21.1 69 20.6 97 97 ENE 16 26 29.99 1016 3 4 0.06 1.52
6:14 am 06:14 Cloudy with Thunderstorms 70 21.1 68 20 93 93 ENE 14 22 29.99 1016 5 8 0.17 4.32
6:27 am 06:27 Cloudy with Nearby Thunderstorms 70 21.1 68 20 93 93 ENE 13 20 30.01 1016 5 8 0.21 5.33
6:52 am 06:52 Cloudy with Nearby Thunderstorms 70 21.1 68 20 93 93 E 9 15 30.01 1016 6 10 0.29 7.37
7:06 am 07:06 Cloudy with Strong Thunderstorms 69 20.6 69 20.6 100 100 ESE 3 6 30.02 1017 3 4 0.08 2.03
7:28 am 07:28 Cloudy with Heavy Rain 69 20.6 68 20 96 96 SSW 7 11 30.02 1017 3 4 0.30 7.62
7:36 am 07:36 Cloudy with Strong Thunderstorms 69 20.6 68 20 96 96 S 17 28 29.97 1015 3 5 0.37 9.40
7:52 am 07:52 Mostly Cloudy with Light Rain 69 20.6 68 20 96 96 SE 3 6 29.99 1016 5 8 0.42 10.67
8:52 am 08:52 Mostly Sunny 70 21.1 69 20.6 97 97 SSE 14 22 29.96 1015 10 16 0.07 1.78
9:52 am 09:52 Mostly Cloudy 71 21.7 70 21.1 96 96 S 12 19 29.96 1015 10 16 0.00 0.00
10:52 am 10:52 Cloudy 74 23.3 71 21.7 91 91 SSW 10 17 29.98 1015 10 16 0.00 0.00
11:52 am 11:52 Cloudy 79 26.1 71 21.7 77 77 SSW 13 20 29.98 1015 10 16 0.00 0.00
12:52 pm 12:52 Sunny 85 29.4 71 21.7 63 63 SW 10 17 29.96 1015 10 16 0.00 0.00
1:52 pm 13:52 Sunny 87 30.6 71 21.7 59 59 W 9 15 29.94 1014 10 16 0.00 0.00
2:52 pm 14:52 Mostly Sunny 90 32.2 70 21.1 52 52 WSW 9 15 29.93 1014 10 16 0.00 0.00
3:52 pm 15:52 Mostly Cloudy 90 32.2 71 21.7 54 54 W 9 15 29.93 1014 10 16 0.00 0.00
4:52 pm 16:52 Mostly Sunny 90 32.2 71 21.7 54 54 NW 10 17 29.92 1013 10 16 0.00 0.00
5:52 pm 17:52 Partly Cloudy 89 31.7 70 21.1 53 53 NW 7 11 29.92 1013 10 16 0.00 0.00
6:52 pm 18:52 Sunny 88 31.1 71 21.7 57 57 N 8 13 29.92 1013 10 16 0.00 0.00
7:52 pm 19:52 Sunny 85 29.4 71 21.7 63 63 NE 6 9 29.93 1014 10 16 0.00 0.00
8:52 pm 20:52 Clear 83 28.3 72 22.2 70 70 E 3 6 29.95 1014 10 16 0.00 0.00
9:52 pm 21:52 Clear 82 27.8 73 22.8 74 74 E 7 11 29.97 1015 10 16 0.00 0.00
10:52 pm 22:52 Clear 79 26.1 73 22.8 82 82 ESE 7 11 29.98 1015 10 16 0.00 0.00
11:52 pm 23:52 Clear 79 26.1 73 22.8 82 82 SSE 7 11 29.98 1015 10 16 0.00 0.00

Powered by AerisWeather